CAPE
5 5 5 5 3 1 12 16 15 11 7 6 1 4 6 2 0 0 0 0 0 0 0 0 0 0 0 0 0 0 0 0 0 0 4 15 16 2 0 1 277 613 1309 1292 1844
17 13 7 3 0 0 0 2 12 18 13 11 8 4 7 2 0 0 0 0 0 0 0 0 0 0 0 0 0 0 0 0 0 0 1 1 19 4 4 0 386 1350 2051 2159 1838
2 3 3 10 18 11 1 0 0 2 13 18 19 12 9 0 0 0 0 0 0 0 0 0 0 0 0 0 0 0 0 0 0 0 0 18 0 3 1 0 90 1216 2094 2252 2105
5 6 5 4 2 6 13 11 7 3 7 14 13 12 10 4 0 7 0 0 0 0 0 0 0 0 0 0 0 0 0 0 0 0 0 11 1 13 3 5 147 1031 2144 2224 2197
9 9 8 6 5 5 0 1 14 16 11 11 9 18 9 5 0 2 0 0 0 0 0 0 0 0 0 0 0 0 0 0 0 0 0 0 4 2 6 40 369 1187 2200 2227 2200
0 3 5 8 7 8 9 3 0 7 17 21 15 25 23 4 0 0 0 0 0 1 0 1 0 0 0 0 0 0 0 0 0 0 0 0 0 0 10 17 257 849 2267 2355 2362
2 1 5 6 9 13 13 9 8 11 30 38 46 37 40 3 0 0 3 0 6 14 4 4 3 0 0 0 0 0 0 0 0 0 0 0 0 0 13 7 267 1573 2115 2335 2396
5 6 8 11 14 19 23 23 20 17 7 12 31 28 10 5 0 0 13 12 18 13 12 19 6 0 0 0 0 0 0 0 0 0 0 0 0 6 17 29 451 1372 2061 2139 2093
8 10 20 14 18 18 22 18 10 0 17 22 26 32 2 0 0 0 0 0 11 13 16 2 10 1 0 0 0 2 0 0 3 0 2 1 0 5 121 259 519 1160 1965 2189 2061
6 12 13 8 9 9 5 1 0 9 0 16 11 16 0 0 1 0 0 2 2 17 18 0 0 0 0 0 1 4 0 0 4 0 1 13 0 34 36 658 743 1051 1732 2079 2073
8 12 6 2 4 5 3 2 0 0 24 2 3 0 75 0 75 31 1 6 12 12 1 0 0 0 0 0 2 21 1 1 0 8 0 0 0 57 4 530 847 1221 1661 2094 1918
10 6 1 2 1 0 8 2 0 3 1 10 5 2 0 155 72 79 32 26 13 24 1 0 0 0 11 4 7 31 18 8 0 10 0 0 0 56 13 18 217 313 1017 1228 433
8 2 1 0 0 0 0 0 1 2 3 4 21 12 32 2 0 7 24 14 12 8 0 0 0 0 1 14 15 13 29 11 9 0 3 7 30 13 89 38 14 0 13 172 34
4 1 0 0 0 0 0 3 4 8 3 2 3 2 15 11 0 0 9 24 15 1 1 0 0 0 0 5 12 6 10 13 8 26 31 8 14 23 73 35 14 9 0 3 24
2 0 0 0 0 0 0 2 0 3 0 1 1 9 17 35 6 7 13 8 0 1 0 1 2 0 0 4 4 22 0 6 7 29 37 11 13 32 48 121 56 10 4 0 0
0 0 0 0 2 0 0 8 1 0 1 1 1 23 5 2 4 8 25 24 3 0 0 1 2 0 0 0 0 0 2 5 40 29 23 11 6 12 22 79 30 76 55 16 1
0 0 0 0 0 0 2 2 1 1 2 0 3 8 11 4 4 3 2 5 28 0 0 0 0 0 0 0 0 3 2 5 7 15 1 0 20 32 7 9 53 61 99 56 30
0 0 0 0 0 0 2 2 3 2 2 2 1 15 4 3 3 14 0 18 1 0 8 0 0 0 0 0 0 0 0 5 4 0 23 9 36 0 1 4 28 77 105 129 39
0 0 0 0 0 0 5 6 1 1 2 2 6 5 13 11 4 4 7 0 10 1 4 0 0 0 0 0 0 0 0 0 0 0 0 0 0 0 2 0 9 16 51 40 23
0 2 0 0 0 7 8 3 5 8 6 2 23 5 2 38 12 5 18 20 44 8 8 0 0 0 0 0 0 0 0 0 7 3 0 5 0 0 0 0 0 0 1 15 15
0 0 0 0 0 4 3 3 4 8 5 2 6 58 38 8 5 15 19 4 1 0 6 9 0 0 0 0 0 0 0 2 21 15 22 19 3 0 0 0 0 0 0 0 0
0 0 0 0 0 0 4 0 1 1 1 4 3 104 72 6 16 22 1 7 9 23 28 19 14 0 0 0 0 0 0 0 6 10 6 35 20 0 0 0 0 0 0 0 6
0 0 0 0 0 2 3 1 6 5 2 1 2 38 183 25 15 20 5 6 9 3 45 2 15 0 0 0 0 0 0 0 0 16 58 42 14 5 38 42 21 45 54 26 1
0 0 0 0 1 4 5 6 1 6 1 2 1 118 171 19 21 6 25 1 0 12 0 31 3 0 0 0 0 0 0 0 1 0 1 34 12 25 11 63 100 68 70 171 314
0 0 0 0 0 4 0 5 4 2 0 3 9 10 101 69 31 38 35 0 0 1 5 171 12 0 18 0 0 0 0 0 0 2 29 57 6 3 56 189 158 231 257 526 731
0 0 0 0 0 2 0 2 0 2 3 3 1 3 59 63 41 108 135 15 14 12 4 166 134 48 16 0 0 0 0 0 3 29 9 3 124 66 282 272 321 491 673 593 700
0 0 0 0 0 0 0 0 4 5 3 0 4 2 3 5 7 78 245 474 340 20 21 56 140 121 70 5 7 10 4 3 4 9 12 66 145 236 243 339 444 239 124 21 0
CIN
-0 -0 -0 -0 -0 -0 -0 -0 -2 -4 -5 -6 -3 -5 -5 -6 -0 -0 -0 -0 -0 -0 -0 -0 -0 -0 -0 -0 -0 -0 -0 -0 -0 -0 -8 -10 -10 -4 -0 -6 -11 -6 -2 -22 -104
-0 -0 -1 -0 -0 -0 -0 -3 -0 -0 -6 -4 -6 -4 -5 -5 -0 -0 -0 -0 -0 -0 -0 -0 -0 -0 -0 -0 -0 -0 -0 -0 -0 -0 -3 -4 -9 -3 -3 -0 -9 -28 -44 -63 -101
-0 -0 -0 -0 -0 -0 -5 -0 -0 -2 -2 -1 -1 -1 -4 -1 -0 -0 -0 -0 -0 -0 -0 -0 -0 -0 -0 -0 -0 -0 -0 -0 -0 -0 -0 -24 -0 -7 -1 -0 -11 -18 -74 -118 -113
-0 -0 -0 -0 -0 -0 -0 -0 -3 -5 -4 -4 -4 -2 -5 -1 -0 -18 -0 -0 -0 -0 -0 -0 -0 -0 -0 -0 -0 -0 -0 -0 -0 -0 -0 -4 -0 -12 -2 -4 -5 -9 -76 -112 -127
-1 -0 -0 -0 -0 -0 -0 -0 -0 -4 -6 -6 -4 -5 -2 -0 -0 -1 -0 -0 -0 -0 -0 -0 -0 -0 -0 -0 -0 -0 -0 -0 -0 -0 -0 -0 -8 -3 -4 -7 -16 -17 -47 -90 -105
-0 -0 -0 -0 -0 -0 -0 -1 -0 -0 -2 -2 -4 -2 -0 -0 -0 -0 -0 -0 -0 -0 -0 -1 -0 -0 -0 -0 -0 -0 -0 -0 -0 -0 -0 -0 -0 -0 -2 -5 -16 -4 -2 -14 -45
-1 -0 -0 -0 -0 -0 -0 -2 -1 -0 -0 -0 -0 -0 -0 -0 -0 -0 -1 -0 -1 -2 -1 -3 -2 -0 -0 -0 -0 -0 -0 -0 -0 -0 -0 -0 -0 -0 -8 -16 -2 -2 -3 -2 -2
-0 -0 -1 -1 -0 -0 -0 -0 -2 -0 -0 -0 -1 -1 -0 -2 -0 -0 -0 -1 -1 -2 -2 -3 -2 -0 -0 -0 -0 -0 -0 -0 -0 -0 -0 -0 -0 -4 -51 -11 -2 -3 -1 -3 -2
-0 -0 -0 -0 -0 -0 -0 -2 -0 -0 -0 -0 -0 -0 -1 -0 -0 -0 -0 -1 -4 -2 -2 -2 -2 -0 -0 -0 -0 -6 -0 -0 -3 -0 -9 -1 -0 -6 -4 -3 -6 -3 -1 -2 -2
-0 -0 -0 -0 -0 -0 -0 -0 -0 -0 -1 -0 -3 -0 -0 -0 -6 -1 -0 -1 -1 -0 -0 -0 -0 -0 -0 -1 -3 -8 -0 -0 -9 -0 -2 -7 -0 -8 -21 -4 -5 -3 -3 -1 -2
-0 -0 -0 -0 -0 -0 -0 -2 -0 -0 -0 -1 -8 -0 -5 -0 -4 -1 -0 -2 -1 -1 -3 -0 -0 -0 -0 -0 -7 -10 -5 -6 -0 -9 -0 -1 -0 -12 -2 -5 -21 -1 -1 -0 -0
-0 -0 -0 -0 -0 -0 -0 -1 -1 -0 -0 -2 -2 -13 -0 -5 -3 -9 -2 -2 -0 -0 -4 -0 -0 -0 -13 -12 -16 -16 -9 -13 -0 -8 -0 -0 -0 -12 -5 -24 -7 -30 -0 -3 -9
-0 -0 -0 -0 -0 -0 -0 -0 -0 -0 -0 -1 -2 -3 -4 -8 -3 -3 -1 -1 -0 -0 -0 -0 -0 -0 -5 -9 -9 -27 -16 -15 -12 -0 -10 -8 -8 -7 -5 -6 -63 -0 -0 -4 -16
-0 -0 -0 -0 -0 -0 -0 -1 -1 -1 -0 -0 -0 -1 -4 -1 -1 -0 -5 -2 -0 -0 -6 -0 -0 -7 -0 -12 -9 -27 -28 -12 -26 -13 -12 -9 -10 -9 -6 -42 -31 -96 -0 -1 -10
-0 -0 -0 -0 -0 -0 -0 -0 -0 -0 -0 -0 -4 -17 -4 -2 -2 -3 -7 -7 -0 -11 -0 -2 -9 -0 -0 -9 -12 -12 -30 -22 -26 -16 -9 -9 -12 -15 -8 -4 -34 -7 -2 -5 -0
-0 -0 -0 -1 -2 -0 -0 -1 -0 -0 -0 -0 -0 -1 -1 -1 -1 -0 -0 -0 -19 -4 -0 -11 -3 -0 -0 -0 -0 -3 -28 -36 -12 -20 -14 -14 -9 -18 -12 -8 -4 -6 -11 -44 -29
-0 -0 -0 -1 -1 -0 -1 -0 -0 -0 -0 -0 -1 -3 -0 -0 -0 -0 -0 -26 -3 -2 -0 -0 -0 -0 -0 -4 -0 -3 -12 -14 -14 -21 -24 -0 -11 -18 -54 -11 -7 -5 -8 -4 -45
-0 -0 -0 -0 -0 -0 -1 -0 -1 -0 -0 -0 -3 -0 -0 -3 -3 -2 -39 -13 -6 -0 -6 -0 -0 -0 -0 -0 -0 -0 -0 -11 -10 -4 -10 -27 -8 -0 -18 -5 -5 -6 -3 -4 -6
-0 -0 -0 -0 -0 -0 -1 -1 -0 -0 -0 -1 -1 -4 -0 -5 -3 -4 -14 -0 -1 -13 -7 -0 -0 -0 -0 -0 -0 -0 -0 -0 -5 -0 -0 -0 -0 -0 -1 -0 -16 -8 -4 -2 -4
-0 -2 -0 -0 -0 -5 -3 -0 -0 -0 -0 -0 -0 -0 -3 -2 -4 -6 -6 -7 -10 -6 -6 -6 -0 -0 -0 -0 -0 -0 -0 -0 -21 -17 -12 -16 -7 -0 -0 -0 -0 -0 -1 -2 -4
-0 -0 -0 -0 -4 -2 -0 -0 -0 -1 -0 -0 -0 -2 -7 -2 -5 -5 -12 -5 -4 -54 -9 -10 -1 -0 -0 -0 -0 -0 -0 -3 -27 -33 -8 -24 -10 -0 -0 -0 -0 -0 -0 -0 -0
-0 -0 -0 -0 -0 -0 -0 -0 -3 -0 -0 -0 -0 -0 -1 -2 -2 -6 -25 -4 -7 -6 -3 -20 -4 -0 -0 -0 -0 -0 -0 -3 -16 -10 -26 -10 -14 -0 -0 -0 -0 -0 -0 -0 -3
-0 -0 -0 -0 -0 -0 -0 -3 -0 -0 -0 -0 -0 -35 -10 -2 -5 -4 -2 -3 -6 -1 -11 -5 -7 -0 -0 -0 -0 -0 -0 -0 -0 -13 -12 -17 -77 -8 -3 -4 -6 -4 -2 -2 -0
-0 -0 -0 -1 -1 -1 -0 -1 -0 -0 -0 -0 -0 -1 -4 -4 -3 -3 -4 -2 -0 -9 -0 -28 -1 -1 -0 -0 -0 -0 -0 -0 -3 -0 -1 -8 -28 -3 -3 -3 -2 -4 -3 -2 -2
-0 -0 -0 -0 -0 -1 -0 -0 -0 -0 -0 -0 -19 -28 -5 -12 -2 -4 -12 -0 -0 -0 -13 -6 -4 -0 -12 -3 -0 -0 -0 -0 -0 -8 -8 -12 -47 -15 -4 -4 -5 -12 -3 -1 -1
-0 -0 -0 -0 -0 -2 -1 -1 -0 -0 -0 -0 -0 -0 -7 -1 -43 -5 -17 -3 -5 -3 -11 -17 -7 -18 -13 -0 -0 -6 -0 -0 -9 -4 -33 -14 -6 -122 -2 -29 -18 -1 -0 -19 -15
-0 -0 -0 -0 -0 -0 -0 -2 -1 -0 -0 -0 -0 -0 -0 -53 -76 -76 -62 -3 -1 -3 -4 -15 -14 -4 -6 -5 -6 -7 -6 -7 -8 -7 -9 -6 -5 -20 -33 -31 -8 -77 -162 -240 -28
Wind_Speed
33 33 33 32 32 33 34 33 32 32 32 32 33 34 33 34 36 36 37 30 23 24 28 29 25 22 25 33 34 34 47 56 55 56 50 34 31 25 25 25 20 21 17 10 8
32 30 31 32 31 32 34 34 33 32 32 33 34 33 34 34 39 44 39 38 31 23 24 24 23 20 30 33 37 41 51 56 50 51 49 44 28 29 29 28 21 20 14 5 9
30 30 34 36 34 34 33 34 33 33 33 32 33 33 33 34 40 36 18 28 27 22 25 29 25 23 32 33 39 46 56 50 51 47 48 50 43 28 33 35 25 20 15 10 12
27 27 30 33 35 36 37 36 35 35 35 34 33 32 32 30 30 17 17 21 18 18 23 25 26 27 30 41 39 46 53 51 47 43 40 50 45 37 39 31 28 18 16 14 12
27 28 30 33 33 33 35 35 37 37 36 35 34 31 32 34 34 26 22 21 12 18 24 24 27 25 30 36 39 50 48 49 47 41 36 36 40 37 39 30 22 10 19 18 16
28 29 31 32 33 34 35 36 36 36 36 35 33 31 34 45 31 32 32 28 25 19 23 25 27 26 29 39 44 43 49 43 49 44 35 39 45 36 34 29 26 23 20 19 19
30 31 32 34 34 35 35 35 36 36 35 35 34 34 41 43 27 26 23 26 24 24 23 21 25 26 26 37 42 46 47 49 45 41 37 38 40 44 35 26 28 23 22 19 15
33 33 35 37 36 36 37 37 36 33 32 30 31 33 46 34 30 38 25 23 18 23 26 22 21 26 30 35 42 48 46 52 44 42 36 34 46 34 38 27 32 25 22 20 17
36 36 38 37 36 35 33 28 21 17 15 16 20 21 39 27 30 32 28 28 22 22 20 23 20 27 32 41 46 45 50 52 44 44 37 36 41 30 31 30 30 27 23 22 20
39 39 39 36 35 30 24 11 6 5 6 5 2 18 21 27 21 17 23 21 24 19 18 19 22 28 38 45 54 50 54 48 47 44 47 40 42 25 28 34 30 28 23 22 20
42 42 38 35 32 22 10 14 15 17 12 12 10 12 20 11 11 16 12 18 19 22 21 19 24 34 38 44 43 40 49 46 47 37 45 45 43 34 28 34 30 26 28 26 23
41 41 36 34 25 13 17 19 21 17 16 7 11 20 21 9 14 18 14 18 23 24 18 17 36 38 35 43 48 41 46 47 43 35 43 45 42 36 30 32 34 35 35 26 22
41 40 36 32 21 19 23 19 18 17 18 22 10 21 23 25 19 23 17 23 30 38 16 23 35 42 39 43 47 43 43 47 41 38 37 44 40 44 27 31 38 42 28 18 19
40 39 35 27 22 24 24 21 21 16 21 21 11 17 24 20 20 24 27 19 25 38 16 32 25 32 37 39 43 40 42 45 39 32 39 44 45 44 33 32 25 34 27 18 18
38 35 30 28 24 30 19 20 23 18 26 16 12 17 25 17 20 15 17 21 32 33 25 24 22 31 37 36 37 35 36 40 36 32 38 42 46 39 36 35 36 36 33 31 18
34 30 27 27 19 22 18 16 18 23 25 12 13 20 28 16 22 30 28 26 30 8 35 14 16 30 30 25 32 24 33 29 34 34 43 40 45 37 40 36 38 39 36 31 25
30 26 24 22 25 15 17 14 22 26 6 8 15 24 23 22 32 29 30 31 32 12 21 16 13 31 30 23 33 27 35 32 34 37 40 35 40 37 22 32 32 33 28 26 26
25 22 23 25 16 13 16 21 29 13 9 12 18 25 18 21 32 30 30 28 14 24 14 10 15 15 38 29 27 31 35 35 38 33 35 26 34 47 19 19 26 28 26 22 24
24 23 30 27 19 14 16 26 26 18 9 12 15 21 21 22 24 30 21 25 19 30 14 9 19 23 36 31 34 33 36 26 26 33 34 31 34 26 30 18 20 31 28 26 26
28 22 34 24 18 16 23 20 17 10 7 15 17 20 20 23 26 30 8 27 25 25 18 22 17 27 34 39 37 35 36 22 28 35 31 27 27 31 26 24 23 24 26 23 20
24 27 32 22 16 25 25 18 14 3 7 16 14 16 19 22 27 28 26 17 19 24 24 17 18 24 36 39 29 34 33 28 27 23 29 22 29 25 20 24 21 20 20 22 24
27 32 30 25 32 24 25 12 10 11 18 15 15 12 12 14 24 27 8 18 19 16 16 14 17 22 22 27 31 33 32 29 21 20 19 19 15 9 12 17 19 18 19 19 19
32 26 28 36 33 30 23 19 22 19 13 11 14 13 15 13 20 19 18 14 21 20 16 16 17 19 23 25 27 30 29 26 23 21 20 14 19 7 10 10 15 13 14 18 19
30 32 26 23 29 28 26 23 23 22 17 15 15 14 14 19 23 24 13 13 25 14 19 14 23 27 27 29 24 30 28 25 25 24 22 13 9 8 9 10 9 12 12 12 14
32 31 27 24 25 24 25 22 17 20 19 17 11 14 14 22 23 26 8 24 24 16 22 18 28 30 26 23 30 29 25 23 25 27 25 5 9 8 7 6 8 9 10 9 9
33 31 27 20 18 19 23 22 18 20 19 18 17 19 17 11 14 15 16 21 31 17 24 20 21 24 24 17 29 23 22 25 26 28 9 20 5 2 1 3 6 6 7 8 10
31 26 23 21 23 20 21 17 15 23 18 19 21 21 20 17 20 22 21 22 20 29 28 24 20 25 14 5 14 20 16 18 22 27 22 18 4 4 5 7 6 7 6 7 8
Wind_Direction
355 349 345 340 337 332 331 327 323 320 315 311 308 302 302 298 291 283 276 275 281 279 276 281 279 269 260 254 246 244 244 240 237 235 236 242 243 247 253 256 255 254 284 182 174
357 355 350 345 342 335 329 326 324 321 317 312 307 305 301 299 288 276 274 270 272 275 274 271 271 265 253 252 244 238 240 240 240 241 241 240 242 242 247 248 252 256 262 179 174
1 358 349 342 340 335 331 325 322 318 316 312 307 304 302 299 288 283 300 281 263 264 266 268 271 265 254 250 241 238 239 241 242 246 244 241 242 240 241 245 248 246 239 217 215
7 1 354 346 339 334 330 325 320 315 312 309 306 303 302 293 283 291 311 308 268 256 262 261 262 258 253 245 242 240 240 241 242 244 249 242 237 245 236 243 256 241 231 220 218
6 0 354 348 343 337 330 326 320 314 310 306 303 300 295 281 273 289 299 295 291 261 258 255 253 253 251 247 243 239 240 240 242 246 245 245 236 248 239 239 252 230 226 228 227
3 358 353 347 342 336 331 325 319 314 309 305 301 297 285 275 286 281 278 278 274 261 260 255 256 254 260 248 240 240 239 242 238 243 244 240 238 245 241 239 245 247 236 231 229
1 355 350 344 340 335 330 325 320 314 309 304 298 291 278 272 287 285 281 271 269 269 260 257 252 253 247 246 241 239 237 238 235 240 240 237 238 236 240 239 240 238 236 231 225
358 353 348 343 339 334 330 327 323 319 312 306 301 291 277 281 276 268 274 268 270 269 265 266 253 256 246 247 237 234 236 231 231 231 233 231 233 233 238 237 234 234 232 228 224
357 352 348 344 341 338 338 338 335 329 323 318 311 296 285 286 269 262 254 257 262 269 268 265 246 246 242 235 230 229 228 227 228 226 230 232 234 233 233 238 230 230 228 230 229
357 354 351 349 348 349 351 343 328 9 39 39 342 317 296 276 273 261 249 250 256 257 257 247 238 240 233 227 224 223 225 226 227 223 229 231 232 223 234 234 230 226 224 226 224
358 356 357 357 357 1 22 39 43 46 65 64 83 147 297 288 279 260 226 237 242 241 238 231 233 229 222 226 224 225 223 227 226 226 224 229 230 235 229 231 233 222 226 227 219
1 2 3 4 13 48 61 59 52 52 47 120 172 193 222 277 251 243 224 226 231 230 229 223 232 227 223 222 223 225 221 227 223 226 223 227 231 231 231 231 230 237 222 214 239
6 7 9 15 39 54 53 58 60 66 65 74 167 176 192 200 235 227 219 230 223 207 189 228 222 217 218 218 221 226 221 223 222 227 225 226 231 228 223 235 232 244 255 200 215
9 12 15 24 38 31 44 50 49 72 57 67 132 177 185 216 224 225 217 226 222 205 227 217 222 221 216 217 218 224 225 221 225 215 223 222 227 226 230 226 227 227 243 239 223
12 16 24 34 42 23 43 49 44 70 46 80 127 153 139 196 203 233 228 221 200 202 213 223 220 215 215 218 218 228 218 221 225 219 225 225 229 224 228 225 223 229 235 243 239
14 19 26 36 45 40 55 53 49 49 56 110 145 145 143 170 153 123 174 208 204 169 197 234 224 218 219 218 217 238 217 221 222 226 227 224 226 232 224 231 234 234 236 240 247
15 24 32 39 36 56 53 51 52 58 99 151 155 140 142 153 132 141 157 175 177 168 219 217 217 213 220 214 217 224 209 214 219 224 228 227 227 236 214 229 233 233 235 238 239
16 28 40 36 48 56 55 58 52 73 106 142 153 128 165 170 151 160 165 157 122 203 227 212 207 198 209 217 211 215 211 216 216 221 223 220 230 227 250 199 228 230 234 234 242
18 36 36 34 48 62 54 53 53 76 122 141 140 136 106 175 187 173 122 164 210 189 232 212 220 215 210 212 213 213 213 223 228 230 230 231 236 239 238 246 236 235 235 240 248
28 36 30 34 50 52 56 67 71 90 147 109 119 116 130 141 129 156 263 191 198 202 229 219 218 215 185 203 214 215 209 232 229 222 230 235 229 239 238 236 243 247 243 250 250
30 33 29 32 46 52 53 64 63 228 229 94 146 133 131 108 132 143 145 219 211 212 217 224 212 212 194 204 216 215 220 226 231 236 226 234 237 246 237 241 244 247 248 252 256
29 28 29 32 42 48 46 65 70 270 329 120 148 185 226 78 132 161 260 230 230 231 220 243 223 208 211 217 213 221 221 225 236 232 240 252 247 249 242 245 247 247 252 257 260
23 27 36 38 37 38 43 50 348 316 283 245 174 227 205 86 134 224 227 242 222 219 238 219 220 205 212 224 220 222 227 228 242 239 243 254 252 261 257 260 259 259 265 269 272
23 23 30 40 41 38 39 45 330 346 316 276 177 218 211 111 153 161 239 229 209 235 230 237 207 207 212 215 218 220 223 226 234 237 242 261 223 241 251 251 263 266 274 277 274
25 24 27 23 29 32 39 44 29 316 333 301 291 277 237 173 130 145 62 199 167 236 207 223 199 199 212 218 209 215 222 225 231 231 233 220 251 254 242 259 277 281 278 280 288
20 20 20 18 27 29 38 37 46 297 326 294 287 257 252 275 240 224 223 141 182 230 208 211 217 214 215 216 207 218 222 221 224 223 244 225 312 304 140 357 321 315 303 295 289
21 22 21 19 21 24 29 35 42 305 312 311 283 255 252 262 249 239 236 232 232 200 199 206 212 206 223 160 222 226 227 230 231 226 240 263 217 310 324 356 346 337 333 329 322